Volver al catálogo

STARLINK-31982

ActivoComunicacionesVLEO
NORAD 60022·PAYLOAD·🇺🇸 United States

Lanzado Jun 8, 2024 desde Cape Canaveral Space Force Station

Loading…

Próximos Pases (próximas 24 horas)

TLE

ActualizadoSource: CelesTrak SupGP

Época: Sep 15, 2026, 02:58 UTC

1 60022C 24111G   26258.12409722 -.00010650  00000+0 -31464-3 0  2581
2 60022  53.1573 271.1282 0001230  96.4580 190.0290 15.34398964    11

Sigue STARLINK-31982 en tiempo real con AllMySat

Download on the App Store